FW6537 Weather Reports


time (UTC)temp
C
wind
direction
speed
KPH
gust
KPH
rain 1hr
cm
rain 24hr
cm
rain mn
cm
humidity
%
barometer
mb
20260902231622 23 20 3.2 14.5 0.00 2.82 2.82 87 1012.5
20260902230137 23 51 4.8 8.0 0.00 2.82 2.82 86 1012.3
20260902224634 24 36 3.2 16.1 0.00 2.82 2.82 85 1011.8
20260902223122 25 329 3.2 6.4 0.00 2.82 2.82 85 1011.9
20260902221622 25 32 3.2 11.3 0.00 2.82 2.82 84 1012.0
20260902220200 25 36 1.6 11.3 0.00 2.82 2.82 83 1012.7
20260902214648 26 37 1.6 9.7 0.00 2.82 2.82 82 1013.8
20260902213121 26 319 1.6 8.0 0.00 2.82 2.82 82 1014.2
20260902211622 26 69 0.0 6.4 0.00 2.82 2.82 82 1014.4
20260902210141 26 4 3.2 11.3 0.00 2.82 2.82 80 1014.0
20260902204637 27 337 1.6 8.0 0.00 2.82 2.82 80 1014.1
20260902203123 27 86 1.6 9.7 0.00 2.82 2.82 78 1014.4
20260902201644 27 63 3.2 9.7 0.00 2.82 2.82 77 1014.1
20260902200152 27 54 3.2 12.9 0.00 2.82 2.82 77 1013.8
20260902194630 27 342 3.2 8.0 0.00 2.82 2.82 77 1013.7
20260902193127 27 346 4.8 11.3 0.00 2.82 2.82 76 1013.9
20260902191624 27 65 4.8 9.7 0.00 2.82 2.82 76 1014.0
20260902190126 27 338 1.6 6.4 0.00 2.82 2.82 77 1013.9
20260902183134 27 58 0.0 6.4 0.00 2.82 2.82 77 1014.5
20260902181626 27 340 3.2 9.7 0.00 2.82 2.82 76 1014.4
20260902174630 25 70 1.6 4.8 0.00 2.82 2.82 84 1014.5
20260902173138 24 127 0.0 8.0 0.03 2.82 2.82 91 1014.4
20260902171646 22 332 3.2 8.0 0.03 2.82 2.82 95 1014.5
20260902170142 22 330 3.2 8.0 0.03 2.82 2.82 98 1014.6
20260902164627 21 49 1.6 6.4 0.08 2.82 2.82 98 1014.5
20260902163142 20 59 1.6 3.2 0.18 2.79 2.79 98 1014.9
20260902161654 20 61 1.6 4.8 0.38 2.79 2.79 98 1015.1
20260902160129 20 28 3.2 4.8 0.86 2.79 2.79 98 1015.5
20260902154622 19 61 1.6 4.8 1.83 2.74 2.74 98 1016.0
20260902153135 19 39 0.0 3.2 1.91 2.62 2.62 97 1017.2
20260902151630 20 70 1.6 8.0 1.91 2.41 2.41 98 1018.1
20260902150146 20 99 0.0 8.0 1.80 1.88 1.88 98 1018.6
20260902144640 20 72 0.0 1.6 0.89 0.91 0.91 98 1017.5
20260902143135 20 122 0.0 0.0 0.71 0.71 0.71 98 1016.6
20260902141630 20 122 0.0 4.8 0.48 0.48 0.48 97 1017.3
20260902140136 20 157 0.0 3.2 0.08 0.08 0.08 98 1016.4
20260902134633 20 134 0.0 1.6 0.03 0.03 0.03 97 1015.8
20260902133131 20 134 0.0 1.6 0.00 0.00 0.00 98 1016.1
20260902131646 20 134 1.6 3.2 0.00 0.00 0.00 98 1016.2
20260902130138 20 141 0.0 0.0 0.00 0.00 0.00 98 1015.9
20260902124623 20 141 0.0 0.0 0.00 0.00 0.00 98 1015.9
20260902123159 20 141 0.0 0.0 0.00 0.00 0.00 98 1015.9
20260902121634 20 141 0.0 0.0 0.00 0.00 0.00 98 1015.8
20260902120127 19 141 0.0 0.0 0.00 0.00 0.00 98 1015.2
20260902114704 19 141 0.0 0.0 0.00 0.00 0.00 98 1015.1
20260902113139 18 141 0.0 0.0 0.00 0.00 0.00 98 1015.3
20260902111631 18 141 0.0 1.6 0.00 0.00 0.00 98 1015.2
20260902110133 18 141 0.0 0.0 0.00 0.00 0.00 98 1015.1
20260902104623 18 141 0.0 0.0 0.00 0.00 0.00 98 1014.9
20260902103122 18 141 0.0 0.0 0.00 0.00 0.00 97 1015.1
20260902101624 18 141 0.0 0.0 0.00 0.00 0.00 97 1015.5
20260902100123 18 141 0.0 0.0 0.00 0.00 0.00 97 1015.4
20260902094641 18 143 0.0 0.0 0.00 0.10 0.00 97 1015.6
20260902093137 18 143 0.0 0.0 0.00 0.10 0.00 97 1015.7
20260902091633 18 143 0.0 0.0 0.00 0.10 0.00 97 1015.5
20260902090129 18 143 0.0 0.0 0.00 0.10 0.00 97 1015.7
20260902084624 18 143 0.0 0.0 0.00 0.10 0.00 97 1015.8
20260902083125 18 143 0.0 0.0 0.00 0.10 0.00 97 1015.9
20260902081637 18 143 0.0 0.0 0.00 0.10 0.00 97 1015.7
20260902080126 18 143 0.0 0.0 0.00 0.10 0.00 97 1015.6
20260902074645 18 143 0.0 0.0 0.00 0.18 0.00 97 1015.7
20260902073145 18 143 0.0 0.0 0.00 0.18 0.00 97 1015.6
20260902071635 18 143 0.0 0.0 0.00 0.18 0.00 97 1015.6
20260902070134 19 143 0.0 0.0 0.00 0.18 0.00 97 1015.4
20260902064629 19 143 0.0 0.0 0.00 0.18 0.00 97 1015.6
20260902063156 19 143 0.0 0.0 0.00 0.18 0.00 97 1015.6
20260902061638 19 143 0.0 0.0 0.00 0.18 0.00 96 1015.6
20260902060136 19 143 0.0 0.0 0.00 0.18 0.00 96 1015.6
20260902054634 19 143 0.0 0.0 0.00 0.20 0.00 96 1015.5
20260902053133 19 143 0.0 0.0 0.00 0.20 0.00 96 1015.8
20260902051652 19 143 0.0 0.0 0.00 0.20 0.00 96 1015.4
20260902050135 19 143 0.0 0.0 0.00 0.20 0.00 96 1015.5
20260902044634 19 143 0.0 0.0 0.00 0.20 0.00 96 1015.3
20260902043131 19 143 0.0 0.0 0.00 0.20 0.00 96 1015.3
20260902041623 20 143 0.0 0.0 0.00 0.20 0.00 95 1015.2
20260902040157 20 143 0.0 0.0 0.00 0.20 0.00 95 1015.1
20260902034632 20 143 0.0 0.0 0.00 0.20 0.20 95 1015.2
20260902033130 20 143 0.0 0.0 0.00 0.20 0.20 95 1015.3
20260902031626 20 143 0.0 0.0 0.00 0.20 0.20 94 1015.2
20260902030144 20 143 0.0 0.0 0.00 0.20 0.20 94 1015.1
20260902024622 21 143 0.0 0.0 0.00 0.20 0.20 93 1015.1
20260902023139 21 143 0.0 1.6 0.00 0.20 0.20 93 1015.3
20260902021633 21 143 0.0 1.6 0.00 0.20 0.20 93 1015.4
20260902020122 21 143 0.0 0.0 0.00 0.20 0.20 93 1015.2
20260902014622 21 143 0.0 0.0 0.00 0.20 0.20 93 1015.2
20260902013126 21 143 0.0 0.0 0.00 0.20 0.20 93 1015.3
20260902011645 21 143 0.0 0.0 0.00 0.20 0.20 92 1014.9
20260902010140 22 143 0.0 1.6 0.00 0.20 0.20 92 1014.9
20260902004625 22 143 0.0 1.6 0.00 0.20 0.20 92 1014.8
20260902003150 22 162 0.0 0.0 0.00 0.20 0.20 92 1014.3
20260902001627 22 162 0.0 0.0 0.00 0.20 0.20 91 1014.1
20260902000159 22 163 0.0 0.0 0.00 0.20 0.20 91 1014.0
20260901234635 23 163 0.0 0.0 0.00 0.23 0.20 90 1013.8
20260901233134 23 163 0.0 0.0 0.00 0.23 0.20 89 1014.0